• In Germany
  • List of Countries
  • For 7 days
  • Water Temperature
  • Satellite Maps
  • Weather Map
  • Weather Widgets
  • user-avatar
    Login

    Hourly Weather Sidi Bu-l-Abbas

    Today, 26 June, Monday

    Time Temperature Precipitation Wind Pressure Humidity
    00:00 +29°C° 0 mm 2 mps 718 mmHg 37%
    01:00 +28°C° 0 mm 2 mps 718 mmHg 40%
    02:00 +28°C° 0 mm 2 mps 718 mmHg 42%
    03:00 +27°C° 0 mm 2 mps 718 mmHg 45%
    04:00 +28°C° 0 mm 2 mps 718 mmHg 46%
    05:00 +28°C° 0 mm 2 mps 718 mmHg 46%
    06:00 +28°C° 0 mm 2 mps 719 mmHg 47%
    07:00 +30°C° 0 mm 2 mps 719 mmHg 41%
    08:00 +34°C° 0 mm 2 mps 720 mmHg 35%
    09:00 +36°C° 0 mm 2 mps 720 mmHg 29%
    10:00 +37°C° 0 mm 3 mps 720 mmHg 28%
    11:00 +38°C° 0 mm 3 mps 720 mmHg 26%
    12:00 +39°C° 0 mm 3 mps 720 mmHg 25%
    13:00 +38°C° 0 mm 3 mps 720 mmHg 26%
    14:00 +38°C° 0 mm 3 mps 719 mmHg 28%
    15:00 +37°C° 0 mm 3 mps 719 mmHg 29%
    16:00 +36°C° 0 mm 2 mps 718 mmHg 31%
    17:00 +35°C° 0 mm 2 mps 718 mmHg 34%
    18:00 +34°C° 0 mm 2 mps 718 mmHg 36%
    19:00 +32°C° 0 mm 2 mps 718 mmHg 40%
    20:00 +31°C° 0 mm 2 mps 718 mmHg 43%
    21:00 +30°C° 0 mm 2 mps 719 mmHg 46%
    22:00 +29°C° 0 mm 2 mps 719 mmHg 47%
    23:00 +29°C° 0 mm 2 mps 719 mmHg 48%

    Tomorrow, 27 June, Tuesday

    Time Temperature Precipitation Wind Pressure Humidity
    00:00 +28°C° 0 mm 2 mps 719 mmHg 48%
    01:00 +28°C° 0 mm 2 mps 718 mmHg 45%
    02:00 +28°C° 0 mm 2 mps 718 mmHg 43%
    03:00 +28°C° 0 mm 2 mps 718 mmHg 40%
    04:00 +29°C° 0 mm 2 mps 718 mmHg 40%
    05:00 +29°C° 0 mm 2 mps 718 mmHg 40%
    06:00 +29°C° 0 mm 2 mps 718 mmHg 40%
    07:00 +31°C° 0 mm 2 mps 718 mmHg 35%
    08:00 +34°C° 0 mm 3 mps 719 mmHg 30%
    09:00 +36°C° 0 mm 3 mps 719 mmHg 25%
    10:00 +37°C° 0 mm 4 mps 719 mmHg 23%
    11:00 +39°C° 0 mm 5 mps 719 mmHg 22%
    12:00 +40°C° 0 mm 5 mps 719 mmHg 21%
    13:00 +39°C° 0 mm 5 mps 718 mmHg 21%
    14:00 +39°C° 0 mm 6 mps 718 mmHg 22%
    15:00 +38°C° 0 mm 6 mps 717 mmHg 22%
    16:00 +36°C° 0 mm 5 mps 717 mmHg 23%
    17:00 +35°C° 0 mm 5 mps 717 mmHg 25%
    18:00 +33°C° 0 mm 5 mps 717 mmHg 26%
    19:00 +32°C° 0 mm 4 mps 717 mmHg 28%
    20:00 +30°C° 0 mm 3 mps 718 mmHg 30%
    21:00 +28°C° 0 mm 2 mps 718 mmHg 32%
    22:00 +28°C° 0 mm 2 mps 718 mmHg 33%
    23:00 +27°C° 0 mm 2 mps 719 mmHg 34%

    Day after tomorrow, 28 June, Wednesday

    Time Temperature Precipitation Wind Pressure Humidity
    00:00 +27°C° 0 mm 3 mps 719 mmHg 34%
    01:00 +26°C° 0.2 mm 3 mps 719 mmHg 38%
    02:00 +25°C° 0.2 mm 3 mps 718 mmHg 42%
    03:00 +24°C° 0.2 mm 3 mps 718 mmHg 46%
    04:00 +24°C° 0 mm 3 mps 719 mmHg 46%
    05:00 +25°C° 0 mm 3 mps 719 mmHg 46%
    06:00 +25°C° 0 mm 4 mps 719 mmHg 46%
    07:00 +26°C° 0 mm 4 mps 719 mmHg 43%
    08:00 +28°C° 0 mm 5 mps 720 mmHg 39%
    09:00 +29°C° 0 mm 6 mps 720 mmHg 36%
    10:00 +32°C° 0 mm 6 mps 720 mmHg 33%
    11:00 +33°C° 0 mm 7 mps 720 mmHg 30%
    12:00 +34°C° 0 mm 7 mps 720 mmHg 27%
    13:00 +34°C° 0 mm 7 mps 719 mmHg 27%
    14:00 +34°C° 0 mm 7 mps 719 mmHg 28%
    15:00 +33°C° 0 mm 7 mps 719 mmHg 28%
    16:00 +32°C° 0 mm 7 mps 718 mmHg 31%
    17:00 +30°C° 0 mm 7 mps 718 mmHg 33%
    18:00 +29°C° 0 mm 6 mps 718 mmHg 36%
    19:00 +27°C° 0 mm 5 mps 718 mmHg 41%
    20:00 +26°C° 0 mm 4 mps 719 mmHg 46%
    21:00 +24°C° 0 mm 3 mps 719 mmHg 51%
    22:00 +24°C° 0 mm 3 mps 719 mmHg 52%
    23:00 +22°C° 0 mm 3 mps 719 mmHg 54%

    29 June, Thursday

    Time Temperature Precipitation Wind Pressure Humidity
    00:00 +22°C° 0 mm 3 mps 719 mmHg 56%
    01:00 +21°C° 0 mm 3 mps 719 mmHg 58%
    02:00 +21°C° 0 mm 3 mps 719 mmHg 60%
    03:00 +20°C° 0 mm 3 mps 718 mmHg 63%
    04:00 +21°C° 0 mm 3 mps 719 mmHg 61%
    05:00 +21°C° 0 mm 3 mps 719 mmHg 60%
    06:00 +22°C° 0 mm 3 mps 719 mmHg 59%
    07:00 +25°C° 0 mm 3 mps 719 mmHg 52%
    08:00 +26°C° 0 mm 4 mps 720 mmHg 46%
    09:00 +28°C° 0 mm 4 mps 720 mmHg 39%
    10:00 +29°C° 0 mm 5 mps 720 mmHg 36%
    11:00 +30°C° 0 mm 5 mps 719 mmHg 33%
    12:00 +33°C° 0 mm 5 mps 719 mmHg 31%
    13:00 +33°C° 0 mm 5 mps 719 mmHg 31%
    14:00 +33°C° 0 mm 6 mps 718 mmHg 31%
    15:00 +33°C° 0 mm 6 mps 718 mmHg 32%
    16:00 +32°C° 0 mm 5 mps 718 mmHg 33%
    17:00 +30°C° 0 mm 5 mps 718 mmHg 34%
    18:00 +29°C° 0 mm 5 mps 717 mmHg 35%
    19:00 +27°C° 0 mm 4 mps 718 mmHg 38%
    20:00 +25°C° 0 mm 3 mps 718 mmHg 41%
    21:00 +24°C° 0 mm 2 mps 718 mmHg 44%
    22:00 +23°C° 0 mm 2 mps 718 mmHg 42%
    23:00 +23°C° 0 mm 2 mps 718 mmHg 40%

    30 June, Friday

    Time Temperature Precipitation Wind Pressure Humidity
    00:00 +22°C° 0 mm 3 mps 718 mmHg 39%
    01:00 +21°C° 0 mm 3 mps 718 mmHg 39%
    02:00 +21°C° 0 mm 3 mps 718 mmHg 38%
    03:00 +21°C° 0 mm 3 mps 717 mmHg 38%
    04:00 +21°C° 0 mm 3 mps 718 mmHg 39%
    05:00 +21°C° 0 mm 3 mps 718 mmHg 39%
    06:00 +22°C° 0 mm 3 mps 718 mmHg 40%
    07:00 +23°C° 0 mm 4 mps 718 mmHg 38%
    08:00 +26°C° 0 mm 6 mps 719 mmHg 37%
    09:00 +27°C° 0 mm 7 mps 719 mmHg 36%
    10:00 +28°C° 0 mm 7 mps 719 mmHg 34%
    11:00 +29°C° 0 mm 7 mps 719 mmHg 32%
    12:00 +29°C° 0 mm 8 mps 719 mmHg 30%
    13:00 +29°C° 0 mm 8 mps 719 mmHg 28%
    14:00 +29°C° 0 mm 7 mps 719 mmHg 26%
    15:00 +29°C° 0 mm 7 mps 720 mmHg 24%
    16:00 +28°C° 0 mm 7 mps 720 mmHg 25%
    17:00 +27°C° 0 mm 6 mps 720 mmHg 25%
    18:00 +26°C° 0 mm 5 mps 720 mmHg 26%
    19:00 +23°C° 0 mm 4 mps 720 mmHg 31%
    20:00 +21°C° 0 mm 3 mps 721 mmHg 36%
    21:00 +21°C° 0 mm 1 mps 721 mmHg 42%
    22:00 +20°C° 0 mm 1 mps 721 mmHg 43%
    23:00 +19°C° 0 mm 1 mps 721 mmHg 45%

    1 July, Saturday

    Time Temperature Precipitation Wind Pressure Humidity
    00:00 +19°C° 0 mm 1 mps 720 mmHg 47%
    01:00 +18°C° 0 mm 1 mps 720 mmHg 47%
    02:00 +18°C° 0 mm 1 mps 720 mmHg 47%
    03:00 +18°C° 0 mm 1 mps 720 mmHg 48%
    04:00 +19°C° 0 mm 1 mps 721 mmHg 46%
    05:00 +19°C° 0 mm 1 mps 721 mmHg 44%
    06:00 +20°C° 0 mm 1 mps 721 mmHg 43%
    07:00 +23°C° 0 mm 1 mps 722 mmHg 37%
    08:00 +25°C° 0 mm 2 mps 722 mmHg 32%
    09:00 +27°C° 0 mm 3 mps 723 mmHg 27%
    10:00 +29°C° 0 mm 4 mps 723 mmHg 24%
    11:00 +30°C° 0 mm 4 mps 723 mmHg 22%
    12:00 +32°C° 0 mm 5 mps 722 mmHg 20%
    13:00 +33°C° 0 mm 5 mps 722 mmHg 20%
    14:00 +33°C° 0 mm 6 mps 722 mmHg 21%
    15:00 +33°C° 0 mm 6 mps 722 mmHg 22%
    16:00 +32°C° 0 mm 6 mps 722 mmHg 24%
    17:00 +30°C° 0 mm 6 mps 722 mmHg 26%
    18:00 +29°C° 0 mm 6 mps 722 mmHg 29%
    19:00 +27°C° 0 mm 5 mps 722 mmHg 33%
    20:00 +25°C° 0 mm 4 mps 722 mmHg 38%
    21:00 +22°C° 0 mm 3 mps 723 mmHg 42%
    22:00 +22°C° 0 mm 3 mps 722 mmHg 44%
    23:00 +21°C° 0 mm 3 mps 722 mmHg 46%
    Show more